Powrót do katalogu

GLOBALSTAR M023

AktywnyŁącznośćLEO
NORAD 25621·PAYLOAD·🇺🇸 United States

Wystrzelony Feb 9, 1999 z Baikonur Cosmodrome

Loading…

Następne Przeloty (najbliższe 24 godziny)

TLE

ŚwieżeSource: Space-Track

Epoka: Sep 14, 2026, 20:30 UTC

1 25621U 99004A   26257.85426062 -.00000085  00000-0  10609-3 0  9996
2 25621  52.0092 108.9315 0010520  54.4149 330.5275 12.62534403273162

Śledź GLOBALSTAR M023 w czasie rzeczywistym z AllMySat

Download on the App Store